, AK

(GMT )
Portage Glacier

Weather History for PATO - February, 2013

Change the Weather History Date:

Monday, February 25, 2013

  Actual Average Record
Temperature  
Mean Temperature 34 °F -  
Max Temperature 36 °F - - ()
Min Temperature 33 °F - - ()
Degree Days  
Heating Degree Days 30    
Moisture  
Dew Point 29 °F    
Average Humidity 81    
Maximum Humidity 100    
Minimum Humidity 72    
Precipitation  
Precipitation 0.31 in - - ()
Sea Level Pressure  
Sea Level Pressure 29.64 in    
Wind  
Wind Speed 16 mph (ESE)    
Max Wind Speed 28 mph    
Max Gust Speed 48 mph    
Visibility 2 miles    
Events Fog , Snow    
T = Trace of Precipitation, MM = Missing Value Source: NWS Daily Summary

Daily Weather History Graph

Daily Weather History Graph

Search for Another Location

Airport or City:

Trip Planner

Search our weather history database for the weather conditions in past years. The results will help you decide how hot, cold, wet, or windy it might be!

Date:

Astronomy

Feb. 25, 2013 Rise Set
Actual Time 8:05 AM AKST 6:12 PM AKST
Civil Twilight 7:22 AM AKST 6:55 PM AKST
Nautical Twilight 6:33 AM AKST 7:44 PM AKST
Astronomical Twilight 5:43 AM AKST 8:34 PM AKST
Moon 6:55 PM AKST (2/25) 7:28 AM AKST (2/25)
Length of Visible Light 11h 32m
Length of Day
10h 06m
Full, 100% of the Moon is Illuminated
Feb 25
Full
Mar 4
Last Quarter
Mar 11
New
Mar 19
First Quarter
Mar 27
Full

Hourly Weather History & Observations

Time (AKST) Temp. Windchill Dew Point Humidity Pressure Visibility Wind Dir Wind Speed Gust Speed Precip Events Conditions
12:53 AM 35.1 °F 25.5 °F 28.0 °F 76% 29.68 in 3.0 mi East 15.0 mph 31.1 mph 0.00 in Snow Light Snow
1:14 AM 34.0 °F 26.0 °F 28.9 °F 82% 29.68 in 2.5 mi SE 10.4 mph 26.5 mph 0.00 in Snow Light Snow
1:35 AM 34.0 °F 23.8 °F 28.0 °F 79% 29.68 in 4.0 mi ESE 16.1 mph 33.4 mph 0.00 in Snow Light Snow
1:53 AM 35.1 °F 25.5 °F 27.0 °F 72% 29.69 in 9.0 mi ESE 15.0 mph 25.3 mph 0.00 in Snow Light Snow
3:09 AM 34.0 °F 23.8 °F 28.9 °F 82% 29.68 in 4.0 mi ESE 16.1 mph 26.5 mph 0.00 in Snow Light Snow
3:23 AM 33.1 °F 24.9 °F 28.9 °F 85% 29.69 in 1.8 mi SE 10.4 mph 21.9 mph 0.00 in Snow Light Snow
3:30 AM 33.1 °F 23.0 °F 28.9 °F 85% 29.69 in 1.2 mi SE 15.0 mph 23.0 mph 0.00 in Snow Light Snow
3:39 AM 33.1 °F 23.4 °F 28.9 °F 85% 29.68 in 3.0 mi SE 13.8 mph 25.3 mph 0.00 in Snow Light Snow
3:53 AM 33.1 °F 23.9 °F 28.9 °F 85% 29.69 in 2.5 mi SE 12.7 mph 21.9 mph 0.00 in Snow Light Snow
4:00 AM 34.0 °F 24.2 °F 28.9 °F 82% 29.69 in 2.5 mi SE 15.0 mph 27.6 mph 0.00 in Snow Light Snow
4:16 AM 34.0 °F 26.0 °F 28.9 °F 82% 29.68 in 5.0 mi SE 10.4 mph 23.0 mph 0.00 in Snow Light Snow
4:53 AM 34.0 °F 25.5 °F 28.0 °F 79% 29.69 in 4.0 mi ESE 11.5 mph 28.8 mph 0.00 in Snow Light Snow
5:53 AM 33.1 °F 24.9 °F 28.9 °F 85% 29.69 in 4.0 mi SE 10.4 mph 28.8 mph 0.00 in Snow Light Snow
6:50 AM 33.8 °F 23.9 °F 28.4 °F 81% 29.67 in 2.5 mi SE 15.0 mph 31.1 mph 0.00 in Snow Light Snow
6:53 AM 34.0 °F 23.4 °F 28.9 °F 82% 29.68 in 2.0 mi SE 17.3 mph 29.9 mph 0.00 in Snow Light Snow
7:01 AM 34.0 °F 23.8 °F 28.9 °F 82% 29.67 in 3.0 mi SE 16.1 mph 27.6 mph 0.00 in Snow Light Snow
7:30 AM 35.1 °F 26.4 °F 28.9 °F 78% 29.67 in 2.5 mi SE 12.7 mph 29.9 mph 0.00 in Snow Light Snow
7:40 AM 34.0 °F 24.2 °F 30.0 °F 85% 29.67 in 1.2 mi ESE 15.0 mph 40.3 mph 0.00 in Snow Light Snow
7:53 AM 34.0 °F 25.0 °F 30.0 °F 85% 29.67 in 1.0 mi ESE 12.7 mph 28.8 mph 0.01 in Snow Light Snow
8:10 AM 34.0 °F 24.2 °F 30.0 °F 85% 29.67 in 1.5 mi SE 15.0 mph 25.3 mph 0.00 in Snow Light Snow
8:20 AM 35.1 °F 25.5 °F 30.0 °F 82% 29.67 in 1.2 mi ESE 15.0 mph 29.9 mph 0.00 in Snow Light Snow
8:40 AM 34.0 °F 24.2 °F 30.0 °F 85% 29.67 in 0.8 mi ESE 15.0 mph 29.9 mph 0.01 in Snow Light Snow
8:45 AM 34.0 °F 24.6 °F 30.0 °F 85% 29.67 in 1.0 mi ESE 13.8 mph 32.2 mph 0.02 in Snow Light Snow
8:53 AM 35.1 °F 22.2 °F 30.0 °F 82% 29.67 in 1.2 mi ENE 27.6 mph 39.1 mph 0.02 in Snow Light Snow
9:38 AM 34.0 °F 24.2 °F 30.0 °F 85% 29.67 in 0.8 mi East 15.0 mph 38.0 mph 0.01 in Snow Light Snow
9:53 AM 34.0 °F 24.2 °F 30.0 °F 85% 29.67 in 0.8 mi ESE 15.0 mph 32.2 mph 0.01 in Snow Light Snow
10:05 AM 35.1 °F 24.5 °F 28.9 °F 78% 29.66 in 2.0 mi East 18.4 mph 40.3 mph 0.00 in Snow Light Snow
10:16 AM 35.1 °F 22.5 °F 28.9 °F 78% 29.66 in 4.0 mi East 26.5 mph 43.7 mph 0.00 in Snow Light Snow
10:26 AM 35.1 °F 24.1 °F 28.9 °F 78% 29.66 in 2.5 mi ESE 19.6 mph 42.6 mph 0.00 in Snow Light Snow
10:45 AM 35.1 °F 23.8 °F 30.0 °F 82% 29.66 in 1.0 mi East 20.7 mph 42.6 mph 0.00 in Snow Light Snow
10:53 AM 35.1 °F 24.8 °F 30.0 °F 82% 29.66 in 1.0 mi ESE 17.3 mph 42.6 mph 0.00 in Snow Light Snow
11:25 AM 34.0 °F 22.4 °F 30.0 °F 85% 29.65 in 0.5 mi SE 20.7 mph 41.4 mph 0.01 in Fog , Snow Snow
11:45 AM 35.1 °F 23.8 °F 30.0 °F 82% 29.66 in 1.0 mi ESE 20.7 mph 34.5 mph 0.01 in Snow Light Snow
11:53 AM 35.1 °F 23.0 °F 28.9 °F 78% 29.65 in 1.5 mi ESE 24.2 mph 44.9 mph 0.02 in Snow Light Snow
12:53 PM 35.1 °F 23.3 °F 30.0 °F 82% 29.66 in 1.5 mi ESE 23.0 mph 39.1 mph 0.01 in Snow Light Snow
1:21 PM 35.1 °F 24.5 °F 30.0 °F 82% 29.65 in 3.0 mi East 18.4 mph 38.0 mph 0.01 in Snow Light Snow
1:29 PM 35.1 °F 23.8 °F 30.0 °F 82% 29.64 in 1.8 mi ESE 20.7 mph 39.1 mph 0.01 in Snow Light Snow
1:46 PM 35.1 °F 23.3 °F 28.9 °F 78% 29.64 in 2.5 mi East 23.0 mph 40.3 mph 0.01 in Snow Light Snow
1:53 PM 36.0 °F 25.6 °F 28.9 °F 76% 29.65 in 2.5 mi East 18.4 mph 40.3 mph 0.01 in Snow Light Snow
2:02 PM 36.0 °F 27.1 °F 28.9 °F 76% 29.64 in 3.0 mi East 13.8 mph 42.6 mph 0.00 in Snow Light Snow
2:05 PM 36.0 °F 27.5 °F 28.9 °F 76% 29.64 in 1.8 mi East 12.7 mph 42.6 mph 0.00 in Snow Light Snow
2:18 PM 35.1 °F 25.5 °F 30.0 °F 82% 29.64 in 0.8 mi ESE 15.0 mph 35.7 mph 0.00 in Snow Light Snow
2:31 PM 35.1 °F 23.8 °F 28.9 °F 78% 29.64 in 1.5 mi East 20.7 mph 39.1 mph 0.01 in Snow Light Snow
2:48 PM 35.6 °F 27.1 °F 30.2 °F 81% 29.63 in 3.0 mi ESE 12.7 mph 38.0 mph 0.01 in Snow Light Snow
2:53 PM 35.1 °F 24.5 °F 28.9 °F 78% 29.64 in 6.0 mi ESE 18.4 mph 27.6 mph 0.01 in Snow Light Snow
3:00 PM 35.1 °F 22.7 °F 30.0 °F 82% 29.63 in 1.8 mi East 25.3 mph 33.4 mph 0.00 in Snow Light Snow
3:11 PM 35.1 °F 23.5 °F 28.9 °F 78% 29.63 in 0.8 mi ESE 21.9 mph 48.3 mph 0.01 in Snow Light Snow
3:31 PM 35.1 °F 23.3 °F 28.9 °F 78% 29.62 in 0.8 mi East 23.0 mph 40.3 mph 0.02 in Snow Light Snow
3:36 PM 34.0 °F 21.5 °F 28.9 °F 82% 29.62 in 1.2 mi ESE 24.2 mph 40.3 mph 0.02 in Snow Light Snow
3:42 PM 34.0 °F 23.8 °F 28.9 °F 82% 29.63 in 0.8 mi ESE 16.1 mph 35.7 mph 0.02 in Snow Light Snow
3:53 PM 34.0 °F 23.4 °F 30.0 °F 85% 29.63 in 1.0 mi East 17.3 mph 31.1 mph 0.03 in Snow Light Snow
3:58 PM 35.1 °F 27.4 °F 30.0 °F 82% 29.62 in 2.5 mi SE 10.4 mph 29.9 mph 0.00 in Snow Light Snow
4:05 PM 35.1 °F 27.4 °F 28.9 °F 78% 29.62 in 7.0 mi ESE 10.4 mph 38.0 mph 0.00 in Snow Light Snow
4:10 PM 35.1 °F 25.2 °F 28.9 °F 78% 29.61 in 1.8 mi ESE 16.1 mph 29.9 mph 0.00 in Snow Light Snow
4:17 PM 34.0 °F 23.4 °F 30.0 °F 85% 29.62 in 0.5 mi ESE 17.3 mph 36.8 mph 0.00 in Fog , Snow Snow
4:29 PM 34.0 °F 22.1 °F 30.0 °F 85% 29.61 in 1.0 mi ESE 21.9 mph 36.8 mph 0.00 in Snow Light Snow
4:53 PM 35.1 °F 24.8 °F 30.0 °F 82% 29.61 in 1.5 mi ESE 17.3 mph 35.7 mph 0.01 in Snow Light Snow
5:08 PM 34.0 °F 23.0 °F 30.0 °F 85% 29.60 in 0.5 mi ESE 18.4 mph 35.7 mph 0.01 in Fog , Snow Snow
5:34 PM 35.1 °F 24.5 °F 30.9 °F 85% 29.60 in 1.0 mi ESE 18.4 mph 41.4 mph 0.03 in Snow Light Snow
5:42 PM 34.0 °F 23.4 °F 30.0 °F 85% 29.60 in 0.8 mi SE 17.3 mph 42.6 mph 0.03 in Snow Light Snow
5:53 PM 34.0 °F 22.4 °F 30.0 °F 85% 29.60 in 0.8 mi ESE 20.7 mph 32.2 mph 0.04 in Snow Light Snow
6:06 PM 35.1 °F 24.1 °F 30.0 °F 82% 29.60 in 1.2 mi ESE 19.6 mph 32.2 mph 0.01 in Snow Light Snow
6:37 PM 35.1 °F 24.8 °F 30.0 °F 82% 29.59 in 3.0 mi SE 17.3 mph 27.6 mph 0.02 in Snow Light Snow
6:53 PM 35.1 °F 25.5 °F 28.9 °F 78% 29.60 in 3.0 mi ESE 15.0 mph 36.8 mph 0.02 in Snow Light Snow
7:43 PM 35.1 °F 25.9 °F 28.9 °F 78% 29.59 in 2.0 mi ESE 13.8 mph 29.9 mph 0.02 in Snow Light Snow
7:53 PM 35.1 °F 25.5 °F 30.0 °F 82% 29.60 in 4.0 mi East 15.0 mph 28.8 mph 0.03 in Snow Light Snow
8:27 PM 36.0 °F 27.1 °F 28.9 °F 76% 29.58 in 2.5 mi East 13.8 mph 28.8 mph 0.00 in Snow Light Snow
8:46 PM 36.0 °F 25.3 °F 28.9 °F 76% 29.57 in 3.0 mi SE 19.6 mph 33.4 mph 0.02 in Snow Light Snow
8:53 PM 36.0 °F 25.6 °F 28.0 °F 73% 29.58 in 3.0 mi ESE 18.4 mph 38.0 mph 0.02 in Snow Light Snow
8:55 PM 36.0 °F 25.0 °F 28.9 °F 76% 29.58 in 2.5 mi East 20.7 mph 38.0 mph 0.00 in Snow Light Snow
8:57 PM 36.0 °F 27.5 °F 28.9 °F 76% 29.57 in 3.0 mi SE 12.7 mph 36.8 mph 0.00 in Snow Light Snow
9:30 PM 36.0 °F 26.7 °F 28.9 °F 76% 29.57 in 2.0 mi ESE 15.0 mph 31.1 mph 0.02 in Snow Light Snow
9:32 PM 36.0 °F 26.0 °F 28.9 °F 76% 29.57 in 3.0 mi ESE 17.3 mph 31.1 mph 0.02 in Snow Light Snow
9:53 PM 36.0 °F 27.1 °F 28.9 °F 76% 29.57 in 2.5 mi ESE 13.8 mph 21.9 mph 0.02 in Snow Light Snow
10:10 PM 35.1 °F 25.9 °F 30.0 °F 82% 29.58 in 1.5 mi ESE 13.8 mph 34.5 mph 0.00 in Snow Light Snow
10:27 PM 34.0 °F 25.0 °F 32.0 °F 92% 29.58 in 1.2 mi ESE 12.7 mph 29.9 mph 0.01 in Snow Light Snow
10:53 PM 33.1 °F 23.0 °F 33.1 °F 100% 29.58 in 1.2 mi SE 15.0 mph 29.9 mph 0.02 in Snow Light Snow
11:51 PM 33.8 °F 25.3 °F 30.2 °F 87% 29.58 in 0.8 mi ESE 11.5 mph 20.7 mph 0.03 in Snow Light Snow
11:53 PM 33.1 °F 23.4 °F 30.9 °F 92% 29.59 in 0.8 mi ESE 13.8 mph 25.3 mph 0.03 in Snow Light Snow